[keps] orb10126.amsat

Ray Hoad ray.hoad at mypbmail.com
Thu May 6 19:07:18 PDT 2010


SB KEPS @ AMSAT  $ORB10126.O
Orbital Elements  10126.OSCAR

HR AMSAT ORBITAL ELEMENTS FOR OSCAR SATELLITES
FROM WA5QGD FORT WORTH,TX May 6, 2010
Send Subscribe/unsubscribe to KEPS at http://www.amsat.org/mailman/listinfo/keps
BID: ORB10126.O
TO ALL RADIO AMATEURS BT

Satellite: AO-07
Catalog number: 07530
Epoch time:      10126.46400216
Element set:     769
Inclination:      101.4025 deg
RA of node:       143.9479 deg
Eccentricity:    0.0012158
Arg of perigee:   357.4033 deg
Mean anomaly:     002.6979 deg
Mean motion:   12.53578321 rev/day
Decay rate:       -2.7e-07 rev/day^2
Epoch rev:           62322
Checksum:              275

Satellite: FO-29
Catalog number: 24278
Epoch time:      10126.39484705
Element set:     304
Inclination:      098.5153 deg
RA of node:       321.3011 deg
Eccentricity:    0.0349940
Arg of perigee:   232.2061 deg
Mean anomaly:     124.6919 deg
Mean motion:   13.52949438 rev/day
Decay rate:       -6.7e-07 rev/day^2
Epoch rev:           67745
Checksum:              312

Satellite: SO-33
Catalog number: 25509
Epoch time:      10126.74147376
Element set:     705
Inclination:      031.4353 deg
RA of node:       022.8913 deg
Eccentricity:    0.0354486
Arg of perigee:   287.3658 deg
Mean anomaly:     068.8519 deg
Mean motion:   14.28302621 rev/day
Decay rate:        2.7e-07 rev/day^2
Epoch rev:           60212
Checksum:              298

Satellite: RS-22
Catalog number: 27939
Epoch time:      10126.62078325
Element set:     156
Inclination:      097.8984 deg
RA of node:       353.8583 deg
Eccentricity:    0.0013432
Arg of perigee:   186.4872 deg
Mean anomaly:     173.6158 deg
Mean motion:   14.63412966 rev/day
Decay rate:       1.35e-06 rev/day^2
Epoch rev:           35287
Checksum:              335

Satellite: VO-52
Catalog number: 28650
Epoch time:      10126.53540586
Element set:     496
Inclination:      097.6945 deg
RA of node:       181.5868 deg
Eccentricity:    0.0028037
Arg of perigee:   054.8542 deg
Mean anomaly:     305.5865 deg
Mean motion:   14.81740678 rev/day
Decay rate:       7.38e-06 rev/day^2
Epoch rev:           27052
Checksum:              340

Satellite: SO-67
Catalog number: 35870
Epoch time:      10126.67628413
Element set:     700
Inclination:      097.3351 deg
RA of node:       176.9017 deg
Eccentricity:    0.0001660
Arg of perigee:   223.0467 deg
Mean anomaly:     283.2495 deg
Mean motion:   15.20867965 rev/day
Decay rate:      1.492e-05 rev/day^2
Epoch rev:            3514
Checksum:              306

Satellite: HO-68
Catalog number: 36122
Epoch time:      10126.59571712
Element set:     278
Inclination:      100.4723 deg
RA of node:       187.4408 deg
Eccentricity:    0.0007916
Arg of perigee:   071.4311 deg
Mean anomaly:     288.7667 deg
Mean motion:   13.16280519 rev/day
Decay rate:       -4.5e-07 rev/day^2
Epoch rev:            1874
Checksum:              302

/EX
SB KEPS @ AMSAT  $ORB10126.D
Orbital Elements  10126.MICROS

HR AMSAT ORBITAL ELEMENTS FOR THE MICROSATS
FROM WA5QGD FORT WORTH,TX May 6, 2010
Send Subscribe/unsubscribe to KEPS at http://www.amsat.org/mailman/listinfo/keps
BID: ORB10126.D
TO ALL RADIO AMATEURS BT

Satellite: UO-11
Catalog number: 14781
Epoch time:      10126.23470569
Element set:     232
Inclination:      098.0577 deg
RA of node:       177.8404 deg
Eccentricity:    0.0009895
Arg of perigee:   019.2472 deg
Mean anomaly:     340.9148 deg
Mean motion:   14.79797313 rev/day
Decay rate:       1.41e-06 rev/day^2
Epoch rev:           40560
Checksum:              310

Satellite: AO-16
Catalog number: 20439
Epoch time:      10126.05165107
Element set:     887
Inclination:      098.3291 deg
RA of node:       085.6249 deg
Eccentricity:    0.0010118
Arg of perigee:   295.2944 deg
Mean anomaly:     064.7200 deg
Mean motion:   14.31859375 rev/day
Decay rate:        2.7e-07 rev/day^2
Epoch rev:            5935
Checksum:              302

Satellite: LO-19
Catalog number: 20442
Epoch time:      10125.98627788
Element set:     797
Inclination:      098.2899 deg
RA of node:       091.5363 deg
Eccentricity:    0.0010932
Arg of perigee:   288.4752 deg
Mean anomaly:     071.5264 deg
Mean motion:   14.32091690 rev/day
Decay rate:       1.52e-06 rev/day^2
Epoch rev:            5951
Checksum:              330

Satellite: AO-27
Catalog number: 22825
Epoch time:      10126.01046604
Element set:     521
Inclination:      098.4833 deg
RA of node:       075.0588 deg
Eccentricity:    0.0008923
Arg of perigee:   039.4531 deg
Mean anomaly:     320.7319 deg
Mean motion:   14.29296117 rev/day
Decay rate:        9.4e-07 rev/day^2
Epoch rev:           86602
Checksum:              295

Satellite: IO-26
Catalog number: 22826
Epoch time:      10126.78338843
Element set:     259
Inclination:      098.4771 deg
RA of node:       076.4280 deg
Eccentricity:    0.0009530
Arg of perigee:   031.9386 deg
Mean anomaly:     328.2377 deg
Mean motion:   14.29551481 rev/day
Decay rate:        2.7e-07 rev/day^2
Epoch rev:           86624
Checksum:              326

Satellite: GO-32
Catalog number: 25397
Epoch time:      10126.19888030
Element set:     178
Inclination:      098.3129 deg
RA of node:       135.9625 deg
Eccentricity:    0.0001890
Arg of perigee:   061.5178 deg
Mean anomaly:     298.6183 deg
Mean motion:   14.23177485 rev/day
Decay rate:       1.04e-06 rev/day^2
Epoch rev:           61407
Checksum:              315

Satellite: NO-44
Catalog number: 26931
Epoch time:      10126.50756035
Element set:     451
Inclination:      067.0530 deg
RA of node:       311.3595 deg
Eccentricity:    0.0005745
Arg of perigee:   263.6105 deg
Mean anomaly:     096.4345 deg
Mean motion:   14.29596482 rev/day
Decay rate:       2.31e-06 rev/day^2
Epoch rev:           44879
Checksum:              301

Satellite: SO-50
Catalog number: 27607
Epoch time:      10125.94150947
Element set:    0168
Inclination:      064.5575 deg
RA of node:       124.8328 deg
Eccentricity:    0.0034433
Arg of perigee:   096.3495 deg
Mean anomaly:     264.1534 deg
Mean motion:   14.71534251 rev/day
Decay rate:       1.43e-06 rev/day^2
Epoch rev:           39616
Checksum:              304

Satellite: CO-55
Catalog number: 27844
Epoch time:      10126.54309652
Element set:     840
Inclination:      098.7098 deg
RA of node:       136.1157 deg
Eccentricity:    0.0009229
Arg of perigee:   296.4077 deg
Mean anomaly:     063.6164 deg
Mean motion:   14.20704073 rev/day
Decay rate:        8.5e-07 rev/day^2
Epoch rev:           35517
Checksum:              312

Satellite: CO-57
Catalog number: 27848
Epoch time:      10126.00310635
Element set:     789
Inclination:      098.7136 deg
RA of node:       134.6692 deg
Eccentricity:    0.0009346
Arg of perigee:   302.6946 deg
Mean anomaly:     057.3335 deg
Mean motion:   14.20496582 rev/day
Decay rate:        4.3e-07 rev/day^2
Epoch rev:           35505
Checksum:              313

Satellite: AO-51
Catalog number: 28375
Epoch time:      10125.50507251
Element set:     668
Inclination:      098.0615 deg
RA of node:       121.4360 deg
Eccentricity:    0.0082818
Arg of perigee:   226.9589 deg
Mean anomaly:     132.4647 deg
Mean motion:   14.40682433 rev/day
Decay rate:        3.4e-07 rev/day^2
Epoch rev:           30736
Checksum:              298

Satellite: GENESAT1
Catalog number: 29655
Epoch time:      10126.80868312
Element set:      45
Inclination:      040.0185 deg
RA of node:       297.5044 deg
Eccentricity:    0.0005698
Arg of perigee:   005.0285 deg
Mean anomaly:     355.0566 deg
Mean motion:   15.85746024 rev/day
Decay rate:    1.19329e-03 rev/day^2
Epoch rev:           19340
Checksum:              300

Satellite: CP3
Catalog number: 31129
Epoch time:      10126.11841578
Element set:     569
Inclination:      097.9425 deg
RA of node:       167.9324 deg
Eccentricity:    0.0102703
Arg of perigee:   005.2075 deg
Mean anomaly:     355.0188 deg
Mean motion:   14.52248426 rev/day
Decay rate:       2.00e-06 rev/day^2
Epoch rev:           16175
Checksum:              283

Satellite: CO-65
Catalog number: 32785
Epoch time:      10126.29404065
Element set:     673
Inclination:      097.8987 deg
RA of node:       191.7944 deg
Eccentricity:    0.0016114
Arg of perigee:   062.7834 deg
Mean anomaly:     297.4988 deg
Mean motion:   14.81645326 rev/day
Decay rate:       6.95e-06 rev/day^2
Epoch rev:           10928
Checksum:              355

Satellite: KKS-1
Catalog number: 33493
Epoch time:      10126.77036930
Element set:     455
Inclination:      098.0812 deg
RA of node:       245.9202 deg
Eccentricity:    0.0018633
Arg of perigee:   275.8151 deg
Mean anomaly:     084.0953 deg
Mean motion:   14.80969079 rev/day
Decay rate:       7.43e-06 rev/day^2
Epoch rev:            6935
Checksum:              313

Satellite: SOHLA-1
Catalog number: 33496
Epoch time:      10126.48888826
Element set:      95
Inclination:      098.0547 deg
RA of node:       236.1120 deg
Eccentricity:    0.0006451
Arg of perigee:   345.8942 deg
Mean anomaly:     014.2067 deg
Mean motion:   14.69490304 rev/day
Decay rate:        8.1e-07 rev/day^2
Epoch rev:            6875
Checksum:              307

/EX
SB KEPS @ AMSAT  $ORB10126.W
Orbital Elements  10126.WEATHER

HR AMSAT ORBITAL ELEMENTS FOR WEATHER SATELLITES
FROM WA5QGD FORT WORTH,TX May 6, 2010
Send Subscribe/unsubscribe to KEPS at http://www.amsat.org/mailman/listinfo/keps
BID: ORB10126.W
TO ALL RADIO AMATEURS BT

Satellite: NOAA-10
Catalog number: 16969
Epoch time:      10126.09512069
Element set:      56
Inclination:      098.6587 deg
RA of node:       155.4523 deg
Eccentricity:    0.0011955
Arg of perigee:   339.3598 deg
Mean anomaly:     020.7095 deg
Mean motion:   14.27415306 rev/day
Decay rate:        8.0e-07 rev/day^2
Epoch rev:           22957
Checksum:              314

